Location: ??????
(55.2000°N, 38.3000°E)
Time: 09:23:47
(UTC+00:00)

Cosmos 2123 Rocket - Pass Details

Date: 15 November 2025
Orbit: 961 x 991 km, 82.9° (Epoch: 14 December)

Event Time Altitude Azimuth Distance (km) Brightness Sun altitude
Exits shadow 01:39:50 32° 183° (S) 1,597 5.0 -28.1°
Maximum altitude 01:42:55 83° 99° (E) 978 3.9 -27.7°
Drops below altitude 10° 01:49:08 10° 12° (NNE) 2,710 6.5 -26.8°
Sets 01:51:38 0° 12° (NNE) 3,660 7.2 -26.4°
